Block Island, RI

7:34 AM EST on February 27, 2017 (GMT -0500)
Block Island State

Weather History for KBID - August, 2012

Change the Weather History Date:

Wednesday, August 15, 2012

  Actual Average Record
Temperature  
Mean Temperature 71 °F -  
Max Temperature 73 °F 76 °F 86 °F (2016)
Min Temperature 69 °F 64 °F 53 °F (1972)
Cooling Degree Days 6    
Growing Degree Days 21 (Base 50)    
Moisture  
Dew Point 69 °F    
Average Humidity 87    
Maximum Humidity 94    
Minimum Humidity 83    
Precipitation  
Precipitation 0.00 in - - ()
Sea Level Pressure  
Sea Level Pressure 29.91 in    
Wind  
Wind Speed 6 mph (South)    
Max Wind Speed 13 mph    
Max Gust Speed -    
Visibility 10 miles    
Events      
Averages and records for this station are not official NWS values.
T = Trace of Precipitation, MM = Missing Value Source: NWS Daily Summary

Daily Weather History Graph

Daily Weather History Graph

Search for Another Location

Airport or City:

Trip Planner

Search our weather history database for the weather conditions in past years. The results will help you decide how hot, cold, wet, or windy it might be!

Date:

Astronomy

Aug. 15, 2012 Rise Set
Actual Time 5:56 AM EDT 7:44 PM EDT
Civil Twilight 5:26 AM EDT 8:13 PM EDT
Nautical Twilight 4:50 AM EDT 8:49 PM EDT
Astronomical Twilight 4:11 AM EDT 9:28 PM EDT
Moon 3:49 AM EDT (8/15) 6:16 PM EDT (8/15)
Length of Visible Light 14h 47m
Length of Day
13h 48m
Waning Crescent, 4% of the Moon is Illuminated
Aug 15
Waning Crescent
Aug 17
New
Aug 24
First Quarter
Aug 31
Full
Sep 8
Last Quarter

Hourly Weather History & Observations

Time (EDT) Temp. Dew Point Humidity Pressure Visibility Wind Dir Wind Speed Gust Speed Precip Events Conditions
12:15 AM 73.4 °F 69.8 °F 88% 29.94 in 10.0 mi South 4.6 mph - N/A   Clear
12:35 AM 73.4 °F 69.8 °F 88% 29.94 in 10.0 mi South 3.5 mph - N/A   Clear
12:55 AM 73.4 °F 69.8 °F 88% 29.95 in 10.0 mi South 4.6 mph - N/A   Clear
1:15 AM 73.4 °F 69.8 °F 88% 29.94 in 10.0 mi South 3.5 mph - N/A   Clear
1:35 AM 73.4 °F 69.8 °F 88% 29.93 in 10.0 mi South 4.6 mph - N/A   Clear
1:55 AM 73.4 °F 69.8 °F 88% 29.93 in 10.0 mi South 4.6 mph - N/A   Clear
2:15 AM 73.4 °F 69.8 °F 88% 29.92 in 10.0 mi South 3.5 mph - N/A   Clear
2:35 AM 73.4 °F 69.8 °F 88% 29.91 in 10.0 mi South 3.5 mph - N/A   Clear
2:55 AM 71.6 °F 69.8 °F 94% 29.90 in 10.0 mi SSE 5.8 mph - N/A   Scattered Clouds
3:15 AM 73.4 °F 69.8 °F 88% 29.91 in 10.0 mi SSE 5.8 mph - N/A   Scattered Clouds
3:35 AM 73.4 °F 69.8 °F 88% 29.90 in 10.0 mi SSE 5.8 mph - N/A   Clear
3:55 AM 73.4 °F 69.8 °F 88% 29.90 in 10.0 mi SSE 5.8 mph - N/A   Clear
4:15 AM 73.4 °F 69.8 °F 88% 29.89 in 10.0 mi SSE 8.1 mph - N/A   Clear
4:35 AM 73.4 °F 69.8 °F 88% 29.87 in 10.0 mi SSE 10.4 mph - N/A   Clear
4:55 AM 73.4 °F 69.8 °F 88% 29.87 in 10.0 mi SSE 10.4 mph - N/A   Clear
5:15 AM 73.4 °F 69.8 °F 88% 29.87 in 10.0 mi SSE 11.5 mph - N/A   Mostly Cloudy
5:35 AM 73.4 °F 69.8 °F 88% 29.87 in 10.0 mi SSE 11.5 mph - N/A   Mostly Cloudy
5:55 AM 73.4 °F 69.8 °F 88% 29.87 in 10.0 mi SSE 12.7 mph - N/A   Mostly Cloudy
6:15 AM 73.4 °F 69.8 °F 88% 29.88 in 10.0 mi SSE 10.4 mph - N/A   Overcast
6:35 AM 73.4 °F 69.8 °F 88% 29.89 in 10.0 mi SSW 5.8 mph - N/A   Overcast
6:55 AM 71.6 °F 69.8 °F 94% 29.89 in 10.0 mi SW 6.9 mph - N/A   Partly Cloudy
7:15 AM 71.6 °F 68.0 °F 88% 29.90 in 10.0 mi SW 3.5 mph - N/A   Clear
7:35 AM 71.6 °F 68.0 °F 88% 29.91 in 10.0 mi SW 4.6 mph - N/A   Clear
7:55 AM 73.4 °F 68.0 °F 83% 29.91 in 10.0 mi SSW 3.5 mph - N/A   Mostly Cloudy
8:15 AM 73.4 °F 68.0 °F 83% 29.91 in 10.0 mi West 4.6 mph - N/A   Overcast
8:35 AM 73.4 °F 68.0 °F 83% 29.93 in 10.0 mi WNW 9.2 mph - N/A   Mostly Cloudy
9:15 AM 71.6 °F 66.2 °F 83% 29.91 in 10.0 mi NNE 6.9 mph - N/A   Mostly Cloudy
10:35 AM 69.8 °F 66.2 °F 88% 29.92 in 10.0 mi ENE 6.9 mph - N/A   Mostly Cloudy
10:55 AM 71.6 °F 66.2 °F 83% 29.93 in 10.0 mi ENE 6.9 mph - N/A   Partly Cloudy
11:15 AM 73.4 °F 68.0 °F 83% 29.92 in 10.0 mi ENE 5.8 mph - N/A   Partly Cloudy
11:35 AM 73.4 °F 68.0 °F 83% 29.92 in 10.0 mi ENE 5.8 mph - N/A   Mostly Cloudy